TimeCDT,TemperatureF,Dew PointF,Humidity,Sea Level PressureIn,VisibilityMPH,Wind Direction,Wind SpeedMPH,Gust SpeedMPH,PrecipitationIn,Events,Conditions,WindDirDegrees,DateUTC
12:53 AM,66.0,60.1,81,29.69,10.0,Calm,Calm,-,N/A,,Clear,0,2012-06-09 05:53:00
1:53 AM,64.0,60.1,87,29.68,10.0,SE,3.5,-,N/A,,Clear,140,2012-06-09 06:53:00
2:53 AM,64.9,60.1,84,29.68,10.0,Calm,Calm,-,N/A,,Clear,0,2012-06-09 07:53:00
3:53 AM,60.1,57.0,90,29.68,10.0,Calm,Calm,-,N/A,,Clear,0,2012-06-09 08:53:00
4:53 AM,63.0,59.0,87,29.67,10.0,Calm,Calm,-,N/A,,Clear,0,2012-06-09 09:53:00
5:53 AM,63.0,60.1,90,29.66,8.0,East,3.5,-,N/A,,Clear,90,2012-06-09 10:53:00
6:53 AM,66.0,61.0,84,29.65,10.0,SE,4.6,-,N/A,,Clear,130,2012-06-09 11:53:00
7:53 AM,70.0,59.0,68,29.65,10.0,South,8.1,-,N/A,,Clear,170,2012-06-09 12:53:00
8:53 AM,73.9,57.9,57,29.64,10.0,South,9.2,-,N/A,,Clear,180,2012-06-09 13:53:00
9:53 AM,78.1,57.0,48,29.64,10.0,SSW,10.4,-,N/A,,Clear,200,2012-06-09 14:53:00
10:53 AM,81.0,57.0,44,29.62,10.0,South,12.7,-,N/A,,Clear,170,2012-06-09 15:53:00
11:53 AM,84.0,57.9,41,29.62,10.0,South,9.2,-,N/A,,Clear,180,2012-06-09 16:53:00
12:53 PM,86.0,59.0,40,29.62,10.0,South,12.7,19.6,N/A,,Clear,190,2012-06-09 17:53:00
1:53 PM,88.0,59.0,37,29.60,10.0,SSW,12.7,25.3,N/A,,Clear,200,2012-06-09 18:53:00
2:53 PM,90.0,57.0,33,29.58,10.0,South,13.8,26.5,N/A,,Clear,190,2012-06-09 19:53:00
3:53 PM,88.0,55.9,34,29.57,10.0,South,19.6,34.5,N/A,,Clear,170,2012-06-09 20:53:00
4:53 PM,89.1,57.0,34,29.55,10.0,South,21.9,28.8,N/A,,Clear,180,2012-06-09 21:53:00
5:53 PM,89.1,55.9,32,29.53,10.0,South,21.9,34.5,N/A,,Clear,170,2012-06-09 22:53:00
6:53 PM,88.0,54.0,31,29.52,10.0,South,25.3,31.1,N/A,,Clear,180,2012-06-09 23:53:00
7:53 PM,84.9,55.0,36,29.53,10.0,South,13.8,-,N/A,,Clear,180,2012-06-10 00:53:00
8:53 PM,81.0,57.0,44,29.55,10.0,South,10.4,-,N/A,,Clear,170,2012-06-10 01:53:00
9:53 PM,78.1,57.0,48,29.55,10.0,SSE,9.2,-,N/A,,Clear,150,2012-06-10 02:53:00
10:53 PM,77.0,57.0,50,29.55,10.0,SSE,15.0,-,N/A,,Clear,150,2012-06-10 03:53:00
11:53 PM,75.0,55.9,51,29.55,10.0,South,13.8,-,N/A,,Clear,170,2012-06-10 04:53:00